Location: Hilton Head Island
(32.2163°N, 80.7526°W)
Time: 18:18:13
(UTC-04:00)

A-11 Canister half - Pass Details

Date: 17 February 2026
Orbit: 1525 x 1683 km, 47.3° (Epoch: 10 March)

Event Time Altitude Azimuth Distance (km) Brightness Sun altitude
Rises 18:18:48 0° 270° (W) 4,711 13.7 -2.4°
Reaches altitude 10° 18:22:14 10° 278° (W) 3,713 12.5 -3.2°
Maximum altitude 18:30:41 37° 344° (NNW) 2,211 9.9 -4.9°
Drops below altitude 10° 18:39:07 10° 49° (NE) 3,696 10.5 -6.7°
Enters shadow 18:41:15 - 55° (NE) 4,304 10.8 -7.1°
